Location: Houston
(29.7630°N, 95.3630°W)
Time: 14:25:53
(UTC-05:00)

Saudisat 1A - Visible Passes

Search period start: 16 April 2014 00:00
Search period end: 26 April 2014 00:00
Orbit: 592 x 617 km, 64.6° (Epoch: 16 April)

Date Brightness Start Highest point End Pass type
(mag) Time Alt. Az. Time Alt. Az. Time Alt. Az.
16 Apr 9.4 21:03:45 10° N 21:07:08 21° NE 21:07:37 21° ENE visible
16 Apr 10.6 22:42:57 10° NW 22:44:28 18° WNW 22:44:28 18° WNW visible
17 Apr 8.4 21:15:48 10° NNW 21:20:00 42° ENE 21:20:30 41° E visible
17 Apr 11.1 22:57:14 10° W 22:57:22 10° W 22:57:22 10° W visible
18 Apr 7.9 21:28:19 10° NNW 21:32:43 87° WSW 21:33:29 60° SSE visible
19 Apr 9.1 21:41:16 10° NW 21:45:20 38° WSW 21:46:32 31° SSW visible
20 Apr 9.0 20:14:36 10° N 20:18:31 31° ENE 20:22:24 10° ESE visible
20 Apr 10.3 21:54:53 10° WNW 21:57:51 18° WSW 21:59:41 14° SW visible
21 Apr 8.0 20:26:55 10° NNW 20:31:18 66° ENE 20:35:36 10° SE visible
22 Apr 8.7 20:39:39 10° NW 20:43:57 55° WSW 20:48:11 10° SSE visible
23 Apr 10.1 20:52:54 10° NW 20:56:29 25° WSW 21:00:03 10° SSW visible
24 Apr 10.9 21:07:28 10° W 21:08:56 12° WSW 21:10:23 10° SW visible
